Location: *
(58.4167°N, 22.5000°E)
Time: 18:31:00
(UTC+00:00)

Cosmos 2297 Rocket - Pass Details

Date: 22 September 2019
Orbit: 841 x 842 km, 71.0° (Epoch: 22 October)

Event Time Altitude Azimuth Distance (km) Brightness Sun altitude
Rises 19:59:56 0° 242° (WSW) 3,396 5.5 -25.0°
Reaches altitude 10° 20:02:28 10° 248° (WSW) 2,464 4.8 -25.2°
Maximum altitude 20:07:55 46° 322° (NW) 1,121 3.2 -25.7°
Drops below altitude 10° 20:13:23 10° 35° (NE) 2,474 4.8 -26.1°
Sets 20:15:56 0° 42° (NE) 3,411 5.5 -26.3°
